| time (UTC) | temp F | wind direction | speed MPH | gust MPH | rain 1hr in | rain 24hr in | rain mn in | humidity % | barometer mb |
| 20260506002258 | 71 | 290 | 0.0 | 6.0 | 0.00 | 0.01 | 0.01 | 59 | 1006.9 |
| 20260506001754 | 71 | 290 | 0.0 | 6.0 | 0.00 | 0.01 | 0.01 | 59 | 1006.9 |
| 20260506001252 | 71 | 93 | 1.0 | 3.0 | 0.00 | 0.01 | 0.01 | 60 | 1006.8 |
| 20260506000748 | 71 | 114 | 3.0 | 4.0 | 0.00 | 0.01 | 0.01 | 59 | 1006.8 |
| 20260506000247 | 70 | 190 | 2.0 | 4.0 | 0.00 | 0.01 | 0.01 | 59 | 1006.6 |
| 20260505235743 | 70 | 47 | 1.0 | 3.0 | 0.00 | 0.01 | 0.01 | 59 | 1006.6 |
| 20260505235241 | 70 | 91 | 2.0 | 2.0 | 0.00 | 0.01 | 0.01 | 60 | 1006.8 |
| 20260505234737 | 69 | 113 | 3.0 | 4.0 | 0.00 | 0.01 | 0.01 | 60 | 1006.8 |
| 20260505234235 | 69 | 101 | 1.0 | 3.0 | 0.00 | 0.01 | 0.01 | 62 | 1007.0 |
| 20260505233731 | 69 | 59 | 2.0 | 5.0 | 0.00 | 0.01 | 0.01 | 62 | 1007.0 |
| 20260505233229 | 69 | 92 | 2.0 | 2.0 | 0.00 | 0.01 | 0.01 | 64 | 1006.9 |
| 20260505232726 | 68 | 119 | 1.0 | 3.0 | 0.00 | 0.01 | 0.01 | 61 | 1006.9 |
| 20260505232224 | 68 | 143 | 0.0 | 3.0 | 0.00 | 0.01 | 0.01 | 65 | 1006.9 |
| 20260505231720 | 68 | 105 | 4.0 | 6.0 | 0.00 | 0.01 | 0.01 | 64 | 1006.6 |
| 20260505231219 | 68 | 106 | 3.0 | 4.0 | 0.00 | 0.01 | 0.01 | 65 | 1006.8 |
| 20260505230717 | 67 | 118 | 3.0 | 4.0 | 0.00 | 0.01 | 0.01 | 66 | 1007.0 |
| 20260505230213 | 67 | 88 | 2.0 | 3.0 | 0.02 | 0.01 | 0.01 | 70 | 1007.2 |
| 20260505225710 | 68 | 128 | 5.0 | 5.0 | 0.05 | 0.01 | 0.01 | 66 | 1007.1 |
| 20260505225207 | 69 | 54 | 2.0 | 2.0 | 0.05 | 0.01 | 0.01 | 66 | 1007.4 |
| 20260505224702 | 70 | 125 | 0.0 | 3.0 | 0.02 | 0.00 | 0.00 | 59 | 1007.3 |
| 20260505224200 | 71 | 146 | 4.0 | 6.0 | 0.00 | 0.00 | 0.00 | 55 | 1007.6 |
| 20260505223658 | 71 | 139 | 2.0 | 5.0 | 0.00 | 0.00 | 0.00 | 53 | 1007.7 |
| 20260505223153 | 72 | 96 | 2.0 | 3.0 | 0.00 | 0.00 | 0.00 | 52 | 1007.9 |
| 20260505222649 | 73 | 98 | 2.0 | 3.0 | 0.00 | 0.00 | 0.00 | 50 | 1007.8 |
| 20260505222146 | 73 | 288 | 0.0 | 5.0 | 0.00 | 0.00 | 0.00 | 51 | 1008.0 |
| 20260505221643 | 73 | 181 | 1.0 | 5.0 | 0.00 | 0.00 | 0.00 | 51 | 1007.8 |
| 20260505221139 | 72 | 89 | 0.0 | 4.0 | 0.00 | 0.00 | 0.00 | 50 | 1007.8 |
| 20260505220637 | 73 | 139 | 6.0 | 6.0 | 0.00 | 0.00 | 0.00 | 47 | 1007.3 |
| 20260505220134 | 73 | 168 | 2.0 | 7.0 | 0.00 | 0.00 | 0.00 | 45 | 1006.8 |
| 20260505215632 | 74 | 33 | 3.0 | 7.0 | 0.00 | 0.00 | 0.00 | 45 | 1007.4 |
| 20260505215130 | 74 | 98 | 2.0 | 12.0 | 0.00 | 0.00 | 0.00 | 45 | 1007.9 |
| 20260505214628 | 75 | 156 | 9.0 | 15.0 | 0.00 | 0.00 | 0.00 | 42 | 1008.0 |
| 20260505214124 | 75 | 234 | 3.0 | 8.0 | 0.00 | 0.00 | 0.00 | 43 | 1008.1 |
| 20260505213622 | 75 | 275 | 2.0 | 4.0 | 0.00 | 0.00 | 0.00 | 44 | 1008.1 |
| 20260505213118 | 75 | 169 | 2.0 | 9.0 | 0.00 | 0.00 | 0.00 | 43 | 1007.9 |
| 20260505212615 | 76 | 258 | 2.0 | 4.0 | 0.00 | 0.00 | 0.00 | 44 | 1007.7 |
| 20260505212113 | 77 | 109 | 4.0 | 5.0 | 0.00 | 0.00 | 0.00 | 43 | 1007.7 |
| 20260505211609 | 77 | 39 | 2.0 | 6.0 | 0.00 | 0.00 | 0.00 | 44 | 1007.7 |
| 20260505211106 | 77 | 220 | 3.0 | 7.0 | 0.00 | 0.00 | 0.00 | 42 | 1007.4 |
| 20260505210602 | 78 | 189 | 2.0 | 6.0 | 0.00 | 0.00 | 0.00 | 42 | 1007.4 |
| 20260505210100 | 78 | 87 | 4.0 | 12.0 | 0.00 | 0.00 | 0.00 | 40 | 1007.3 |
| 20260505205557 | 77 | 75 | 2.0 | 7.0 | 0.00 | 0.00 | 0.00 | 42 | 1007.3 |
| 20260505205055 | 78 | 161 | 6.0 | 13.0 | 0.00 | 0.00 | 0.00 | 40 | 1007.3 |
| 20260505204552 | 78 | 172 | 2.0 | 8.0 | 0.00 | 0.00 | 0.00 | 41 | 1007.5 |
| 20260505204049 | 79 | 158 | 9.0 | 12.0 | 0.00 | 0.00 | 0.00 | 40 | 1007.5 |
| 20260505203545 | 79 | 125 | 2.0 | 5.0 | 0.00 | 0.00 | 0.00 | 44 | 1007.3 |
| 20260505203043 | 78 | 151 | 2.0 | 12.0 | 0.00 | 0.00 | 0.00 | 42 | 1007.6 |
| 20260505202539 | 78 | 91 | 0.0 | 11.0 | 0.00 | 0.00 | 0.00 | 44 | 1007.9 |
| 20260505202035 | 78 | 76 | 3.0 | 9.0 | 0.00 | 0.00 | 0.00 | 43 | 1007.9 |
| 20260505201532 | 77 | 254 | 0.0 | 5.0 | 0.00 | 0.00 | 0.00 | 45 | 1007.9 |
| 20260505201030 | 76 | 122 | 3.0 | 6.0 | 0.00 | 0.00 | 0.00 | 47 | 1008.1 |
| 20260505200527 | 77 | 123 | 9.0 | 14.0 | 0.00 | 0.00 | 0.00 | 43 | 1008.1 |
| 20260505200024 | 77 | 155 | 6.0 | 10.0 | 0.00 | 0.00 | 0.00 | 44 | 1008.3 |
| 20260505195520 | 77 | 135 | 1.0 | 11.0 | 0.00 | 0.00 | 0.00 | 45 | 1008.2 |
| 20260505195018 | 77 | 151 | 2.0 | 10.0 | 0.00 | 0.00 | 0.00 | 45 | 1008.3 |
| 20260505194515 | 76 | 75 | 1.0 | 8.0 | 0.00 | 0.00 | 0.00 | 47 | 1008.4 |
| 20260505194010 | 76 | 142 | 4.0 | 11.0 | 0.00 | 0.00 | 0.00 | 47 | 1008.3 |
| 20260505193508 | 75 | 139 | 4.0 | 13.0 | 0.00 | 0.00 | 0.00 | 46 | 1008.7 |
| 20260505193004 | 75 | 53 | 4.0 | 11.0 | 0.00 | 0.00 | 0.00 | 46 | 1008.8 |
| 20260505192503 | 75 | 132 | 7.0 | 11.0 | 0.00 | 0.00 | 0.00 | 46 | 1009.0 |
| 20260505192000 | 75 | 9 | 3.0 | 12.0 | 0.00 | 0.00 | 0.00 | 45 | 1009.0 |
| 20260505191459 | 76 | 259 | 2.0 | 9.0 | 0.00 | 0.00 | 0.00 | 45 | 1009.2 |
| 20260505190956 | 76 | 138 | 2.0 | 9.0 | 0.00 | 0.00 | 0.00 | 46 | 1009.3 |
| 20260505190450 | 76 | 325 | 4.0 | 12.0 | 0.00 | 0.00 | 0.00 | 45 | 1009.3 |
| 20260505185946 | 75 | 260 | 0.0 | 9.0 | 0.00 | 0.00 | 0.00 | 49 | 1009.4 |
| 20260505185444 | 75 | 233 | 3.0 | 4.0 | 0.00 | 0.00 | 0.00 | 48 | 1009.5 |
| 20260505184940 | 74 | 134 | 4.0 | 13.0 | 0.00 | 0.00 | 0.00 | 49 | 1009.3 |
| 20260505184437 | 74 | 200 | 2.0 | 5.0 | 0.00 | 0.00 | 0.00 | 50 | 1009.2 |
| 20260505183933 | 74 | 179 | 5.0 | 11.0 | 0.00 | 0.00 | 0.00 | 48 | 1009.2 |
| 20260505183430 | 73 | 133 | 7.0 | 10.0 | 0.00 | 0.00 | 0.00 | 50 | 1009.2 |
| 20260505182927 | 73 | 121 | 5.0 | 9.0 | 0.00 | 0.00 | 0.00 | 51 | 1009.2 |
| 20260505182424 | 72 | 157 | 4.0 | 8.0 | 0.00 | 0.00 | 0.00 | 52 | 1009.2 |
| 20260505181920 | 72 | 121 | 12.0 | 14.0 | 0.00 | 0.00 | 0.00 | 52 | 1009.4 |
| 20260505181418 | 72 | 127 | 4.0 | 11.0 | 0.00 | 0.00 | 0.00 | 52 | 1009.1 |
| 20260505180914 | 72 | 164 | 1.0 | 9.0 | 0.00 | 0.00 | 0.00 | 54 | 1009.3 |
| 20260505180411 | 72 | 147 | 0.0 | 6.0 | 0.00 | 0.00 | 0.00 | 54 | 1009.2 |
| 20260505175907 | 72 | 93 | 4.0 | 6.0 | 0.00 | 0.00 | 0.00 | 54 | 1009.4 |
| 20260505175404 | 72 | 101 | 4.0 | 11.0 | 0.00 | 0.00 | 0.00 | 53 | 1009.7 |
| 20260505174900 | 72 | 149 | 4.0 | 11.0 | 0.00 | 0.00 | 0.00 | 53 | 1009.5 |
| 20260505174358 | 72 | 117 | 4.0 | 8.0 | 0.00 | 0.00 | 0.00 | 55 | 1009.5 |
| 20260505173854 | 72 | 203 | 5.0 | 13.0 | 0.00 | 0.00 | 0.00 | 53 | 1009.7 |
| 20260505173350 | 72 | 69 | 0.0 | 15.0 | 0.00 | 0.00 | 0.00 | 54 | 1009.7 |
| 20260505172847 | 72 | 223 | 2.0 | 4.0 | 0.00 | 0.00 | 0.00 | 54 | 1009.9 |
| 20260505172345 | 72 | 117 | 2.0 | 12.0 | 0.00 | 0.00 | 0.00 | 55 | 1009.9 |
| 20260505171844 | 72 | 95 | 1.0 | 7.0 | 0.00 | 0.00 | 0.00 | 55 | 1009.9 |
| 20260505171342 | 71 | 182 | 3.0 | 5.0 | 0.00 | 0.00 | 0.00 | 54 | 1010.1 |
| 20260505170838 | 71 | 125 | 3.0 | 5.0 | 0.00 | 0.00 | 0.00 | 55 | 1010.3 |
| 20260505170335 | 71 | 170 | 2.0 | 7.0 | 0.00 | 0.00 | 0.00 | 56 | 1010.6 |
| 20260505165830 | 71 | 134 | 5.0 | 5.0 | 0.00 | 0.00 | 0.00 | 55 | 1010.7 |
| 20260505165326 | 71 | 131 | 2.0 | 5.0 | 0.00 | 0.00 | 0.00 | 54 | 1010.9 |
| 20260505164822 | 72 | 142 | 9.0 | 9.0 | 0.00 | 0.00 | 0.00 | 54 | 1011.0 |
| 20260505164319 | 72 | 227 | 2.0 | 3.0 | 0.00 | 0.00 | 0.00 | 55 | 1011.0 |
| 20260505163817 | 72 | 150 | 2.0 | 6.0 | 0.00 | 0.00 | 0.00 | 53 | 1011.2 |
| 20260505163316 | 73 | 83 | 2.0 | 8.0 | 0.00 | 0.00 | 0.00 | 53 | 1011.2 |
| 20260505162814 | 72 | 83 | 2.0 | 2.0 | 0.00 | 0.00 | 0.00 | 55 | 1011.4 |
| 20260505162309 | 72 | 110 | 5.0 | 5.0 | 0.00 | 0.00 | 0.00 | 56 | 1011.4 |
| 20260505161807 | 72 | 106 | 4.0 | 5.0 | 0.00 | 0.00 | 0.00 | 54 | 1011.4 |
| 20260505161304 | 72 | 161 | 0.0 | 6.0 | 0.00 | 0.00 | 0.00 | 57 | 1011.4 |
| 20260505160801 | 72 | 297 | 2.0 | 5.0 | 0.00 | 0.00 | 0.00 | 55 | 1011.6 |
| 20260505160259 | 72 | 56 | 2.0 | 4.0 | 0.00 | 0.00 | 0.00 | 54 | 1011.6 |
| 20260505153239 | 73 | 199 | 3.0 | 4.0 | 0.00 | 0.00 | 0.00 | 53 | 1011.6 |
| 20260505152736 | 73 | 195 | 1.0 | 2.0 | 0.00 | 0.00 | 0.00 | 55 | 1011.4 |
| 20260505152232 | 72 | 137 | 2.0 | 6.0 | 0.00 | 0.00 | 0.00 | 55 | 1011.5 |
| 20260505151731 | 72 | 72 | 1.0 | 7.0 | 0.00 | 0.00 | 0.00 | 56 | 1011.5 |
| 20260505151229 | 72 | 96 | 4.0 | 4.0 | 0.00 | 0.00 | 0.00 | 55 | 1011.4 |
| 20260505150726 | 72 | 0 | 4.0 | 5.0 | 0.00 | 0.00 | 0.00 | 53 | 1011.2 |
| 20260505150224 | 71 | 92 | 0.0 | 5.0 | 0.00 | 0.00 | 0.00 | 57 | 1011.3 |
| 20260505140154 | 68 | 112 | 4.0 | 6.0 | 0.00 | 0.00 | 0.00 | 62 | 1011.2 |
| 20260505130117 | 64 | 164 | 2.0 | 5.0 | 0.00 | 0.00 | 0.00 | 66 | 1010.8 |
| 20260505124607 | 63 | 88 | 2.0 | 4.0 | 0.00 | 0.00 | 0.00 | 68 | 1010.7 |
| 20260505124103 | 62 | 101 | 2.0 | 4.0 | 0.00 | 0.00 | 0.00 | 69 | 1010.6 |
| 20260505123559 | 62 | 117 | 4.0 | 4.0 | 0.00 | 0.00 | 0.00 | 69 | 1010.7 |
| 20260505123056 | 62 | 95 | 2.0 | 4.0 | 0.00 | 0.00 | 0.00 | 70 | 1010.8 |
| 20260505122553 | 62 | 112 | 2.0 | 4.0 | 0.00 | 0.00 | 0.00 | 70 | 1010.9 |
| 20260505122050 | 61 | 110 | 3.0 | 9.0 | 0.00 | 0.00 | 0.00 | 71 | 1011.0 |
| 20260505121546 | 61 | 141 | 2.0 | 2.0 | 0.00 | 0.00 | 0.00 | 72 | 1011.0 |
| 20260505121043 | 61 | 87 | 2.0 | 2.0 | 0.00 | 0.00 | 0.00 | 74 | 1010.9 |
| 20260505120540 | 60 | 97 | 1.0 | 4.0 | 0.00 | 0.00 | 0.00 | 74 | 1010.8 |
| 20260505120035 | 60 | 74 | 2.0 | 2.0 | 0.00 | 0.00 | 0.00 | 75 | 1010.8 |
| 20260505115530 | 59 | 71 | 0.0 | 3.0 | 0.00 | 0.00 | 0.00 | 75 | 1010.3 |
| 20260505115028 | 59 | 76 | 2.0 | 3.0 | 0.00 | 0.00 | 0.00 | 77 | 1010.5 |
| 20260505114525 | 58 | 122 | 0.0 | 3.0 | 0.00 | 0.00 | 0.00 | 79 | 1010.5 |
| 20260505114021 | 58 | 54 | 2.0 | 2.0 | 0.00 | 0.00 | 0.00 | 82 | 1010.0 |
| 20260505113518 | 57 | 53 | 3.0 | 3.0 | 0.00 | 0.00 | 0.00 | 81 | 1010.0 |
| 20260505113014 | 57 | 78 | 2.0 | 3.0 | 0.00 | 0.00 | 0.00 | 82 | 1010.1 |
| 20260505112510 | 56 | 72 | 2.0 | 2.0 | 0.00 | 0.00 | 0.00 | 83 | 1010.3 |
| 20260505112009 | 56 | 53 | 2.0 | 3.0 | 0.00 | 0.00 | 0.00 | 83 | 1010.2 |
| 20260505111507 | 56 | 85 | 3.0 | 3.0 | 0.00 | 0.00 | 0.00 | 83 | 1010.0 |
| 20260505111004 | 56 | 79 | 2.0 | 2.0 | 0.00 | 0.00 | 0.00 | 83 | 1010.2 |
| 20260505110500 | 56 | 73 | 3.0 | 4.0 | 0.00 | 0.00 | 0.00 | 83 | 1010.0 |
| 20260505101933 | 56 | 77 | 2.0 | 3.0 | 0.00 | 0.00 | 0.00 | 83 | 1009.6 |
| 20260505101432 | 56 | 65 | 2.0 | 3.0 | 0.00 | 0.00 | 0.00 | 82 | 1009.4 |
| 20260505100928 | 56 | 77 | 3.0 | 3.0 | 0.00 | 0.00 | 0.00 | 82 | 1009.6 |
| 20260505100425 | 56 | 78 | 2.0 | 3.0 | 0.00 | 0.00 | 0.00 | 82 | 1009.4 |
| 20260505095921 | 56 | 81 | 2.0 | 3.0 | 0.00 | 0.00 | 0.00 | 81 | 1009.4 |
| 20260505095418 | 56 | 75 | 2.0 | 3.0 | 0.00 | 0.00 | 0.00 | 81 | 1009.4 |
| 20260505094914 | 56 | 70 | 3.0 | 3.0 | 0.00 | 0.00 | 0.00 | 81 | 1009.5 |
| 20260505094412 | 56 | 80 | 2.0 | 3.0 | 0.00 | 0.00 | 0.00 | 80 | 1009.6 |
| 20260505093907 | 56 | 68 | 3.0 | 3.0 | 0.00 | 0.00 | 0.00 | 80 | 1009.5 |
| 20260505093404 | 56 | 77 | 2.0 | 4.0 | 0.00 | 0.00 | 0.00 | 80 | 1009.5 |
| 20260505092902 | 56 | 88 | 3.0 | 4.0 | 0.00 | 0.00 | 0.00 | 80 | 1009.3 |
| 20260505092400 | 57 | 78 | 2.0 | 3.0 | 0.00 | 0.00 | 0.00 | 79 | 1009.4 |
| 20260505091856 | 57 | 79 | 2.0 | 4.0 | 0.00 | 0.00 | 0.00 | 79 | 1009.3 |
| 20260505091354 | 57 | 73 | 3.0 | 4.0 | 0.00 | 0.00 | 0.00 | 78 | 1009.3 |
| 20260505090852 | 57 | 80 | 3.0 | 4.0 | 0.00 | 0.00 | 0.00 | 77 | 1009.6 |
| 20260505090350 | 57 | 71 | 3.0 | 4.0 | 0.00 | 0.00 | 0.00 | 76 | 1009.8 |
| 20260505085847 | 57 | 66 | 3.0 | 4.0 | 0.00 | 0.00 | 0.00 | 75 | 1009.7 |
| 20260505085345 | 58 | 74 | 3.0 | 4.0 | 0.00 | 0.00 | 0.00 | 75 | 1009.6 |
| 20260505084843 | 58 | 76 | 3.0 | 3.0 | 0.00 | 0.00 | 0.00 | 74 | 1009.7 |
| 20260505084341 | 59 | 78 | 2.0 | 3.0 | 0.00 | 0.00 | 0.00 | 73 | 1009.6 |
| 20260505083838 | 59 | 72 | 2.0 | 3.0 | 0.00 | 0.00 | 0.00 | 72 | 1009.4 |
| 20260505083335 | 59 | 68 | 3.0 | 3.0 | 0.00 | 0.00 | 0.00 | 71 | 1009.4 |
| 20260505082832 | 60 | 64 | 3.0 | 4.0 | 0.00 | 0.00 | 0.00 | 70 | 1009.5 |
| 20260505082328 | 60 | 65 | 3.0 | 3.0 | 0.00 | 0.00 | 0.00 | 68 | 1009.3 |
| 20260505081825 | 61 | 78 | 3.0 | 3.0 | 0.00 | 0.00 | 0.00 | 67 | 1009.1 |
| 20260505081321 | 62 | 81 | 2.0 | 3.0 | 0.00 | 0.00 | 0.00 | 66 | 1009.1 |
| 20260505080818 | 62 | 96 | 2.0 | 3.0 | 0.00 | 0.00 | 0.00 | 64 | 1009.2 |
| 20260505080314 | 62 | 59 | 2.0 | 3.0 | 0.00 | 0.00 | 0.00 | 64 | 1009.0 |
| 20260505075809 | 62 | 91 | 3.0 | 4.0 | 0.00 | 0.00 | 0.00 | 64 | 1009.1 |
| 20260505075307 | 62 | 282 | 1.0 | 3.0 | 0.00 | 0.00 | 0.00 | 65 | 1009.1 |
| 20260505074804 | 62 | 69 | 2.0 | 3.0 | 0.00 | 0.00 | 0.00 | 66 | 1009.3 |
| 20260505074301 | 62 | 86 | 1.0 | 1.0 | 0.00 | 0.00 | 0.00 | 65 | 1009.1 |
| 20260505073758 | 63 | 84 | 2.0 | 2.0 | 0.00 | 0.00 | 0.00 | 64 | 1009.1 |
| 20260505073256 | 63 | 121 | 1.0 | 2.0 | 0.00 | 0.00 | 0.00 | 63 | 1009.3 |
| 20260505072753 | 63 | 81 | 1.0 | 2.0 | 0.00 | 0.00 | 0.00 | 63 | 1009.1 |
| 20260505072249 | 64 | 80 | 1.0 | 3.0 | 0.00 | 0.00 | 0.00 | 61 | 1009.2 |
| 20260505071745 | 64 | 78 | 1.0 | 2.0 | 0.00 | 0.00 | 0.00 | 60 | 1009.2 |
| 20260505071242 | 64 | 98 | 2.0 | 3.0 | 0.00 | 0.00 | 0.00 | 60 | 1009.1 |
| 20260505070739 | 64 | 180 | 0.0 | 5.0 | 0.00 | 0.00 | 0.00 | 59 | 1009.0 |
| 20260505070235 | 64 | 95 | 1.0 | 3.0 | 0.00 | 0.00 | 0.00 | 60 | 1009.1 |
| 20260505065731 | 64 | 78 | 1.0 | 3.0 | 0.00 | 0.00 | 0.00 | 60 | 1009.2 |
| 20260505065228 | 64 | 84 | 1.0 | 3.0 | 0.00 | 0.00 | 0.00 | 61 | 1009.4 |
| 20260505064725 | 64 | 91 | 3.0 | 3.0 | 0.00 | 0.00 | 0.00 | 61 | 1009.4 |
| 20260505064223 | 64 | 109 | 1.0 | 3.0 | 0.00 | 0.00 | 0.00 | 61 | 1009.4 |
| 20260505063720 | 64 | 38 | 0.0 | 2.0 | 0.00 | 0.00 | 0.00 | 61 | 1009.5 |
| 20260505063216 | 64 | 73 | 0.0 | 2.0 | 0.00 | 0.00 | 0.00 | 60 | 1009.3 |
| 20260505062713 | 64 | 36 | 2.0 | 2.0 | 0.00 | 0.00 | 0.00 | 59 | 1009.5 |
| 20260505062211 | 64 | 75 | 2.0 | 2.0 | 0.00 | 0.00 | 0.00 | 58 | 1009.5 |
| 20260505061707 | 64 | 86 | 1.0 | 2.0 | 0.00 | 0.00 | 0.00 | 58 | 1009.3 |
| 20260505061206 | 65 | 76 | 0.0 | 4.0 | 0.00 | 0.00 | 0.00 | 58 | 1009.7 |
| 20260505060702 | 65 | 113 | 3.0 | 3.0 | 0.00 | 0.00 | 0.00 | 58 | 1009.7 |
| 20260505060159 | 65 | 100 | 3.0 | 4.0 | 0.00 | 0.00 | 0.00 | 57 | 1009.8 |
| 20260505055654 | 65 | 78 | 0.0 | 5.0 | 0.00 | 0.00 | 0.00 | 57 | 1009.9 |
| 20260505055151 | 65 | 97 | 0.0 | 4.0 | 0.00 | 0.00 | 0.00 | 57 | 1009.8 |
| 20260505054649 | 65 | 89 | 1.0 | 3.0 | 0.00 | 0.00 | 0.00 | 57 | 1009.9 |
| 20260505054147 | 65 | 109 | 3.0 | 4.0 | 0.00 | 0.00 | 0.00 | 57 | 1010.0 |
| 20260505053644 | 65 | 93 | 1.0 | 2.0 | 0.00 | 0.00 | 0.00 | 57 | 1009.8 |
| 20260505053140 | 65 | 72 | 1.0 | 3.0 | 0.00 | 0.00 | 0.00 | 57 | 1009.9 |
| 20260505052637 | 65 | 103 | 2.0 | 4.0 | 0.00 | 0.00 | 0.00 | 57 | 1009.8 |
| 20260505052135 | 65 | 100 | 2.0 | 4.0 | 0.00 | 0.00 | 0.00 | 57 | 1009.7 |
| 20260505051631 | 65 | 93 | 1.0 | 3.0 | 0.00 | 0.00 | 0.00 | 57 | 1009.8 |
| 20260505051130 | 66 | 81 | 2.0 | 3.0 | 0.00 | 0.00 | 0.00 | 56 | 1009.8 |
| 20260505050627 | 66 | 98 | 1.0 | 2.0 | 0.00 | 0.00 | 0.00 | 55 | 1009.8 |
| 20260505050125 | 66 | 137 | 3.0 | 3.0 | 0.00 | 0.00 | 0.00 | 56 | 1009.9 |
| 20260505041555 | 67 | 89 | 1.0 | 3.0 | 0.00 | 0.00 | 0.00 | 54 | 1009.5 |
| 20260505041052 | 67 | 85 | 0.0 | 2.0 | 0.00 | 0.00 | 0.00 | 53 | 1009.4 |
| 20260505040549 | 68 | 76 | 0.0 | 5.0 | 0.00 | 0.00 | 0.00 | 53 | 1009.3 |
| 20260505040047 | 68 | 60 | 0.0 | 3.0 | 0.00 | 0.00 | 0.00 | 52 | 1009.4 |
| 20260505035542 | 68 | 55 | 1.0 | 2.0 | 0.00 | 0.00 | 0.00 | 51 | 1009.4 |
| 20260505035039 | 69 | 107 | 1.0 | 2.0 | 0.00 | 0.00 | 0.00 | 51 | 1009.2 |
| 20260505034536 | 69 | 106 | 1.0 | 2.0 | 0.00 | 0.00 | 0.00 | 49 | 1009.4 |
| 20260505034033 | 69 | 110 | 2.0 | 2.0 | 0.00 | 0.00 | 0.00 | 49 | 1009.2 |
| 20260505033530 | 69 | 67 | 2.0 | 5.0 | 0.00 | 0.00 | 0.00 | 49 | 1009.3 |
| 20260505033028 | 69 | 155 | 0.0 | 2.0 | 0.00 | 0.00 | 0.00 | 49 | 1009.3 |
| 20260505032525 | 69 | 181 | 1.0 | 4.0 | 0.00 | 0.00 | 0.00 | 49 | 1009.3 |
| 20260505032022 | 70 | 48 | 0.0 | 3.0 | 0.00 | 0.00 | 0.00 | 48 | 1009.2 |
| 20260505031519 | 70 | 129 | 5.0 | 8.0 | 0.00 | 0.00 | 0.00 | 48 | 1009.2 |
| 20260505031015 | 70 | 127 | 0.0 | 6.0 | 0.00 | 0.00 | 0.00 | 49 | 1009.0 |
| 20260505030512 | 70 | 104 | 1.0 | 5.0 | 0.00 | 0.00 | 0.00 | 49 | 1009.1 |
| 20260505030008 | 70 | 106 | 2.0 | 4.0 | 0.00 | 0.00 | 0.00 | 49 | 1009.1 |
| 20260505025504 | 70 | 198 | 0.0 | 5.0 | 0.00 | 0.00 | 0.00 | 49 | 1009.0 |
| 20260505025004 | 70 | 94 | 2.0 | 2.0 | 0.00 | 0.00 | 0.00 | 49 | 1009.1 |
| 20260505024500 | 70 | 86 | 1.0 | 2.0 | 0.00 | 0.00 | 0.00 | 49 | 1009.2 |
| 20260505023957 | 70 | 107 | 2.0 | 4.0 | 0.00 | 0.00 | 0.00 | 49 | 1009.0 |
| 20260505023454 | 71 | 68 | 0.0 | 2.0 | 0.00 | 0.00 | 0.00 | 49 | 1009.2 |
| 20260505022951 | 71 | 74 | 2.0 | 2.0 | 0.00 | 0.00 | 0.00 | 48 | 1009.1 |
| 20260505022449 | 71 | 151 | 2.0 | 4.0 | 0.00 | 0.00 | 0.00 | 47 | 1009.1 |
| 20260505021946 | 71 | 165 | 3.0 | 3.0 | 0.00 | 0.00 | 0.00 | 47 | 1008.9 |
| 20260505021442 | 71 | 38 | 1.0 | 4.0 | 0.00 | 0.00 | 0.00 | 48 | 1009.0 |
| 20260505020938 | 70 | 125 | 2.0 | 7.0 | 0.00 | 0.00 | 0.00 | 47 | 1008.9 |
| 20260505020433 | 71 | 53 | 2.0 | 3.0 | 0.00 | 0.00 | 0.00 | 46 | 1008.9 |
| 20260505015931 | 71 | 87 | 1.0 | 2.0 | 0.00 | 0.00 | 0.00 | 45 | 1008.7 |
| 20260505015428 | 71 | 98 | 1.0 | 2.0 | 0.00 | 0.00 | 0.00 | 45 | 1008.7 |
| 20260505014925 | 71 | 114 | 3.0 | 3.0 | 0.00 | 0.00 | 0.00 | 44 | 1008.8 |
| 20260505014422 | 72 | 84 | 1.0 | 2.0 | 0.00 | 0.00 | 0.00 | 44 | 1008.7 |
| 20260505013919 | 72 | 84 | 2.0 | 3.0 | 0.00 | 0.00 | 0.00 | 43 | 1008.7 |
| 20260505013416 | 73 | 107 | 2.0 | 3.0 | 0.00 | 0.00 | 0.00 | 42 | 1008.8 |
| 20260505012914 | 73 | 89 | 0.0 | 3.0 | 0.00 | 0.00 | 0.00 | 42 | 1008.8 |
| 20260505012411 | 73 | 168 | 2.0 | 4.0 | 0.00 | 0.00 | 0.00 | 42 | 1008.8 |
| 20260505011907 | 73 | 174 | 1.0 | 2.0 | 0.00 | 0.00 | 0.00 | 41 | 1008.8 |
| 20260505011404 | 74 | 111 | 1.0 | 2.0 | 0.00 | 0.00 | 0.00 | 41 | 1008.8 |
| 20260505010901 | 74 | 129 | 0.0 | 5.0 | 0.00 | 0.00 | 0.00 | 41 | 1008.4 |
| 20260505010356 | 74 | 53 | 0.0 | 3.0 | 0.00 | 0.00 | 0.00 | 41 | 1008.9 |
| 20260505005853 | 74 | 19 | 3.0 | 5.0 | 0.00 | 0.00 | 0.00 | 40 | 1008.7 |